﻿TIME_UTC_SECONDS;TIME_UTC_STR;AIR_TEMP;TRACK_TEMP;HUMIDITY;PRESSURE;WIND_SPEED;WIND_DIRECTION;
1507235690;05-Oct-17 20:34:50;78.90008;105.00008;50;30.119225495;2.6;169;
1507235700;05-Oct-17 20:35:00;78.90008;105.00008;51;30.118044291;2.6;128;
1507235710;05-Oct-17 20:35:10;78.90008;105.00008;51;30.118044291;3.2;139;
1507235720;05-Oct-17 20:35:20;78.90008;105.00008;51;30.118044291;3.2;131;
1507235730;05-Oct-17 20:35:30;78.99998;105.00008;51;30.118044291;3.2;128;
1507235740;05-Oct-17 20:35:40;78.99998;105.99998;51;30.118044291;3.2;128;
1507235750;05-Oct-17 20:35:50;78.99998;105.99998;51;30.118044291;2.6;125;
1507235760;05-Oct-17 20:36:00;78.99998;107.00006;51;30.119225495;3.2;121;
1507235770;05-Oct-17 20:36:10;78.99998;107.00006;51;30.119225495;2.6;121;
1507235780;05-Oct-17 20:36:20;79.10006;107.00006;51;30.119225495;1.9;117;
1507235790;05-Oct-17 20:36:30;78.99998;107.99996;51;30.119225495;1.9;117;
1507235800;05-Oct-17 20:36:40;78.99998;107.99996;51;30.119225495;1.9;117;
1507235810;05-Oct-17 20:36:50;78.99998;109.00004;51;30.119225495;1.9;117;
1507235820;05-Oct-17 20:37:00;78.99998;109.00004;51;30.117158388;1.3;120;
1507235830;05-Oct-17 20:37:10;78.99998;109.00004;51;30.117158388;2.6;122;
1507235840;05-Oct-17 20:37:20;78.99998;109.99994;51;30.117158388;2.6;122;
1507235850;05-Oct-17 20:37:30;79.10006;109.99994;51;30.117158388;3.2;123;
1507235860;05-Oct-17 20:37:40;79.10006;111.00002;51;30.117158388;1.9;123;
1507235870;05-Oct-17 20:37:50;79.10006;111.00002;51;30.117158388;1.3;123;
1507235880;05-Oct-17 20:38:00;79.10006;111.00002;51;30.115977184;1.3;140;
1507235890;05-Oct-17 20:38:10;79.10006;111.00002;51;30.115977184;1.3;182;
1507235900;05-Oct-17 20:38:20;79.10006;111.00002;51;30.115977184;1.9;182;
1507235910;05-Oct-17 20:38:30;79.10006;111.00002;51;30.115977184;0.6;182;
1507235920;05-Oct-17 20:38:40;79.10006;111.00002;51;30.115977184;1.3;181;
1507235930;05-Oct-17 20:38:50;79.19996;111.00002;51;30.115977184;0.6;181;
1507235940;05-Oct-17 20:39:00;79.19996;111.00002;51;30.115977184;0.6;181;
1507235950;05-Oct-17 20:39:10;79.19996;111.99992;50;30.115977184;0.6;181;
1507235960;05-Oct-17 20:39:20;79.19996;111.99992;50;30.115977184;1.3;182;
1507235970;05-Oct-17 20:39:30;79.19996;111.99992;50;30.115977184;1.9;190;
1507235980;05-Oct-17 20:39:40;79.30004;111.99992;50;30.115977184;1.3;190;
1507235990;05-Oct-17 20:39:50;79.30004;113;50;30.115977184;1.3;190;
1507236000;05-Oct-17 20:40:00;79.39994;113;50;30.115977184;0.6;190;
1507236010;05-Oct-17 20:40:10;79.39994;113;50;30.115977184;0.6;190;
1507236020;05-Oct-17 20:40:20;79.39994;113;50;30.115977184;0.6;190;
1507236030;05-Oct-17 20:40:30;79.39994;113;50;30.115977184;0.6;190;
1507236040;05-Oct-17 20:40:40;79.39994;114.00008;50;30.115977184;0.6;190;
1507236050;05-Oct-17 20:40:50;79.39994;114.00008;50;30.115977184;1.3;190;
1507236060;05-Oct-17 20:41:00;79.50002;114.00008;50;30.115977184;1.9;189;
1507236070;05-Oct-17 20:41:10;79.59992;114.00008;50;30.115977184;1.9;189;
1507236080;05-Oct-17 20:41:20;79.59992;114.00008;50;30.115977184;1.9;216;
1507236090;05-Oct-17 20:41:30;79.59992;114.00008;50;30.115977184;1.9;201;
1507236100;05-Oct-17 20:41:40;79.59992;114.00008;50;30.115977184;1.9;201;
1507236110;05-Oct-17 20:41:50;79.7;114.00008;50;30.115977184;2.6;169;
1507236120;05-Oct-17 20:42:00;79.7;114.00008;50;30.118044291;2.6;161;
1507236130;05-Oct-17 20:42:10;79.7;114.00008;50;30.118044291;1.9;183;
1507236141;05-Oct-17 20:42:21;79.80008;114.00008;50;30.118044291;0.6;190;
1507236151;05-Oct-17 20:42:31;79.80008;114.00008;50;30.118044291;0.6;188;
1507236171;05-Oct-17 20:42:51;79.80008;114.00008;49;30.118044291;2.6;167;
1507236181;05-Oct-17 20:43:01;79.89998;114.00008;49;30.115977184;1.9;156;
1507236191;05-Oct-17 20:43:11;79.89998;114.00008;49;30.115977184;2.6;168;
1507236201;05-Oct-17 20:43:21;79.89998;114.00008;49;30.115977184;1.3;165;
1507236211;05-Oct-17 20:43:31;79.89998;114.00008;49;30.115977184;1.3;165;
1507236221;05-Oct-17 20:43:41;80.00006;114.00008;49;30.115977184;1.3;165;
1507236231;05-Oct-17 20:43:51;79.89998;114.00008;49;30.115977184;3.2;169;
1507236241;05-Oct-17 20:44:01;80.00006;114.00008;49;30.115977184;1.9;150;
1507236251;05-Oct-17 20:44:11;80.00006;114.00008;49;30.115977184;3.9;180;
1507236261;05-Oct-17 20:44:21;80.00006;114.00008;50;30.115977184;2.6;155;
1507236271;05-Oct-17 20:44:31;80.00006;114.00008;50;30.115977184;3.2;145;
1507236281;05-Oct-17 20:44:41;80.00006;114.00008;50;30.115977184;3.2;166;
1507236291;05-Oct-17 20:44:51;80.00006;113;50;30.115977184;4.6;159;
1507236301;05-Oct-17 20:45:01;80.09996;113;50;30.115091281;5.9;137;
1507236311;05-Oct-17 20:45:11;80.09996;113;50;30.115091281;5.2;122;
1507236331;05-Oct-17 20:45:31;80.09996;113;50;30.115091281;2.6;146;
1507236341;05-Oct-17 20:45:41;80.00006;111.99992;50;30.115091281;3.2;129;
1507236351;05-Oct-17 20:45:51;80.09996;111.99992;50;30.115091281;2.6;130;
1507236361;05-Oct-17 20:46:01;80.09996;111.99992;50;30.115977184;3.9;104;
1507236371;05-Oct-17 20:46:11;80.09996;111.99992;50;30.115977184;2.6;91;
1507236381;05-Oct-17 20:46:21;80.09996;111.99992;50;30.115977184;2.6;114;
1507236391;05-Oct-17 20:46:31;80.09996;113;50;30.115977184;4.6;115;
1507236401;05-Oct-17 20:46:41;80.09996;113;50;30.115977184;3.2;122;
1507236411;05-Oct-17 20:46:51;80.09996;113;50;30.115977184;3.9;105;
1507236421;05-Oct-17 20:47:01;80.09996;113;50;30.115091281;5.2;115;
1507236431;05-Oct-17 20:47:11;80.09996;113;50;30.115091281;4.6;164;
1507236441;05-Oct-17 20:47:21;80.09996;113;50;30.115091281;3.2;146;
1507236451;05-Oct-17 20:47:31;80.00006;111.99992;50;30.115091281;2.6;150;
1507236461;05-Oct-17 20:47:41;80.09996;111.99992;50;30.115091281;5.2;136;
1507236471;05-Oct-17 20:47:51;80.00006;111.99992;50;30.115091281;3.9;115;
1507236481;05-Oct-17 20:48:01;80.09996;111.99992;50;30.115091281;5.2;112;
1507236491;05-Oct-17 20:48:11;80.09996;111.99992;50;30.115091281;3.9;100;
1507236501;05-Oct-17 20:48:21;80.09996;111.99992;50;30.115091281;1.9;99;
1507236511;05-Oct-17 20:48:31;80.00006;111.99992;50;30.115091281;1.3;101;
1507236521;05-Oct-17 20:48:41;80.00006;111.99992;50;30.115091281;0.6;136;
1507236531;05-Oct-17 20:48:51;80.00006;111.99992;50;30.115091281;2.6;117;
1507236541;05-Oct-17 20:49:01;80.00006;113;50;30.114205378;4.6;158;
1507236551;05-Oct-17 20:49:11;80.00006;113;50;30.114205378;2.6;141;
1507236561;05-Oct-17 20:49:21;80.00006;113;50;30.114205378;5.2;140;
1507236571;05-Oct-17 20:49:31;80.00006;113;50;30.114205378;5.9;140;
1507236581;05-Oct-17 20:49:41;80.00006;113;50;30.114205378;5.2;150;
1507236591;05-Oct-17 20:49:51;80.00006;111.99992;50;30.114205378;5.2;153;
1507236601;05-Oct-17 20:50:01;79.89998;111.99992;50;30.111252368;3.9;157;
1507236611;05-Oct-17 20:50:11;79.89998;111.99992;50;30.111252368;3.2;153;
1507236621;05-Oct-17 20:50:21;79.89998;111.99992;50;30.111252368;5.2;148;
1507236631;05-Oct-17 20:50:31;79.89998;111.00002;50;30.111252368;2.6;153;
1507236641;05-Oct-17 20:50:41;79.89998;111.00002;50;30.111252368;4.6;139;
1507236651;05-Oct-17 20:50:51;79.89998;111.00002;50;30.111252368;5.2;147;
1507236661;05-Oct-17 20:51:01;79.89998;111.00002;50;30.111252368;5.2;144;
1507236671;05-Oct-17 20:51:11;79.89998;111.00002;50;30.111252368;2.6;151;
1507236681;05-Oct-17 20:51:21;79.89998;111.00002;50;30.111252368;1.3;152;
1507236691;05-Oct-17 20:51:31;79.89998;109.99994;50;30.111252368;2.6;137;
1507236701;05-Oct-17 20:51:41;79.89998;109.99994;50;30.111252368;5.9;130;
1507236711;05-Oct-17 20:51:51;79.89998;109.99994;50;30.111252368;4.6;133;
1507236721;05-Oct-17 20:52:01;79.89998;109.99994;49;30.112138271;5.2;133;
1507236731;05-Oct-17 20:52:11;79.89998;109.99994;49;30.112138271;5.2;143;
1507236741;05-Oct-17 20:52:21;79.89998;109.99994;49;30.112138271;5.2;131;
1507236751;05-Oct-17 20:52:31;79.89998;109.99994;49;30.112138271;5.2;143;
1507236761;05-Oct-17 20:52:41;79.89998;109.99994;49;30.112138271;2.6;131;
1507236771;05-Oct-17 20:52:51;79.89998;109.99994;50;30.112138271;2.6;133;
1507236781;05-Oct-17 20:53:01;79.89998;109.99994;50;30.110071164;3.2;148;
1507236791;05-Oct-17 20:53:11;79.89998;109.99994;50;30.110071164;2.6;146;
1507236802;05-Oct-17 20:53:22;79.89998;109.99994;50;30.110071164;1.3;150;
1507236812;05-Oct-17 20:53:32;79.89998;109.99994;50;30.110071164;5.2;158;
1507236822;05-Oct-17 20:53:42;79.89998;109.99994;49;30.110071164;5.9;141;
1507236832;05-Oct-17 20:53:52;79.89998;109.99994;49;30.110071164;5.9;125;
1507236842;05-Oct-17 20:54:02;79.89998;109.99994;49;30.111252368;5.2;135;
1507236852;05-Oct-17 20:54:12;79.89998;109.99994;49;30.111252368;3.2;124;
1507236862;05-Oct-17 20:54:22;79.89998;109.99994;49;30.111252368;4.6;134;
1507236872;05-Oct-17 20:54:32;79.89998;109.99994;49;30.111252368;5.2;146;
1507236882;05-Oct-17 20:54:42;79.89998;109.99994;49;30.111252368;3.2;131;
1507236892;05-Oct-17 20:54:52;79.89998;109.99994;49;30.111252368;5.2;128;
1507236902;05-Oct-17 20:55:02;79.80008;109.99994;49;30.110071164;5.2;141;
1507236912;05-Oct-17 20:55:12;79.80008;109.99994;49;30.110071164;4.6;140;
1507236922;05-Oct-17 20:55:22;79.80008;109.99994;49;30.110071164;5.2;134;
1507236932;05-Oct-17 20:55:32;79.80008;109.99994;49;30.110071164;5.9;132;
1507236942;05-Oct-17 20:55:42;79.80008;109.99994;49;30.110071164;4.6;134;
1507236952;05-Oct-17 20:55:52;79.80008;109.99994;49;30.110071164;4.6;128;
1507236962;05-Oct-17 20:56:02;79.80008;109.99994;49;30.111252368;2.6;125;
1507236972;05-Oct-17 20:56:12;79.7;109.99994;49;30.111252368;2.6;128;
1507236982;05-Oct-17 20:56:22;79.80008;109.99994;49;30.111252368;2.6;146;
1507236992;05-Oct-17 20:56:32;79.7;109.99994;49;30.111252368;2.6;138;
1507237002;05-Oct-17 20:56:42;79.7;109.99994;49;30.111252368;2.6;138;
1507237012;05-Oct-17 20:56:52;79.7;109.99994;49;30.111252368;1.9;126;
1507237022;05-Oct-17 20:57:02;79.7;111.00002;49;30.110071164;2.6;109;
1507237032;05-Oct-17 20:57:12;79.7;111.00002;50;30.110071164;1.9;133;
1507237042;05-Oct-17 20:57:22;79.59992;111.00002;50;30.110071164;2.6;133;
1507237052;05-Oct-17 20:57:32;79.59992;111.00002;50;30.110071164;1.9;111;
1507237062;05-Oct-17 20:57:42;79.59992;111.00002;50;30.110071164;1.9;111;
1507237072;05-Oct-17 20:57:52;79.59992;111.00002;50;30.110071164;3.9;93;
1507237082;05-Oct-17 20:58:02;79.59992;111.00002;50;30.110071164;1.9;107;
1507237092;05-Oct-17 20:58:12;79.59992;111.00002;50;30.110071164;2.6;107;
1507237102;05-Oct-17 20:58:22;79.59992;111.00002;50;30.110071164;3.9;107;
1507237112;05-Oct-17 20:58:32;79.59992;111.00002;50;30.110071164;3.2;134;
1507237122;05-Oct-17 20:58:42;79.59992;111.00002;50;30.110071164;3.2;148;
1507237132;05-Oct-17 20:58:52;79.50002;111.00002;50;30.110071164;1.9;140;
1507237142;05-Oct-17 20:59:02;79.59992;111.00002;50;30.109185261;2.6;113;
1507237152;05-Oct-17 20:59:12;79.50002;111.00002;50;30.109185261;1.9;114;
1507237162;05-Oct-17 20:59:22;79.50002;111.99992;50;30.109185261;1.3;113;
1507237172;05-Oct-17 20:59:32;79.50002;111.99992;50;30.109185261;1.3;113;
1507237182;05-Oct-17 20:59:42;79.50002;111.99992;50;30.109185261;0.6;113;
1507237192;05-Oct-17 20:59:52;79.50002;111.99992;50;30.109185261;0.6;113;
1507237202;05-Oct-17 21:00:02;79.50002;113;50;30.111252368;0;113;
1507237212;05-Oct-17 21:00:12;79.50002;113;50;30.111252368;0;113;
1507237222;05-Oct-17 21:00:22;79.50002;113;50;30.111252368;0.6;113;
1507237232;05-Oct-17 21:00:32;79.50002;113;50;30.111252368;0;113;
1507237242;05-Oct-17 21:00:42;79.50002;113;50;30.111252368;0;113;
1507237252;05-Oct-17 21:00:52;79.50002;113;50;30.111252368;0.6;116;
1507237262;05-Oct-17 21:01:02;79.50002;114.00008;50;30.112138271;1.3;152;
1507237272;05-Oct-17 21:01:12;79.50002;114.00008;50;30.112138271;2.6;165;
1507237282;05-Oct-17 21:01:22;79.59992;114.00008;50;30.112138271;2.6;176;
1507237292;05-Oct-17 21:01:32;79.50002;114.00008;50;30.112138271;1.9;184;
1507237302;05-Oct-17 21:01:42;79.50002;114.00008;50;30.112138271;1.9;178;
1507237312;05-Oct-17 21:01:52;79.50002;114.00008;50;30.112138271;1.9;183;
1507237322;05-Oct-17 21:02:02;79.50002;114.00008;50;30.111252368;1.9;157;
1507237332;05-Oct-17 21:02:12;79.59992;114.00008;50;30.111252368;1.3;157;
1507237342;05-Oct-17 21:02:22;79.59992;114.00008;50;30.111252368;2.6;145;
1507237352;05-Oct-17 21:02:32;79.59992;113;50;30.111252368;3.2;128;
1507237362;05-Oct-17 21:02:42;79.59992;113;50;30.111252368;2.6;128;
1507237372;05-Oct-17 21:02:52;79.59992;113;50;30.111252368;2.6;129;
1507237382;05-Oct-17 21:03:02;79.59992;113;50;30.112138271;3.9;155;
1507237392;05-Oct-17 21:03:12;79.59992;113;50;30.112138271;1.9;150;
1507237402;05-Oct-17 21:03:22;79.59992;113;50;30.112138271;3.2;137;
1507237412;05-Oct-17 21:03:32;79.59992;111.99992;50;30.112138271;2.6;134;
1507237422;05-Oct-17 21:03:42;79.59992;111.99992;50;30.112138271;3.9;156;
1507237432;05-Oct-17 21:03:52;79.59992;111.99992;50;30.112138271;1.9;155;
1507237442;05-Oct-17 21:04:02;79.59992;111.99992;50;30.113024174;2.6;149;
1507237452;05-Oct-17 21:04:12;79.7;111.00002;50;30.113024174;1.9;146;
1507237463;05-Oct-17 21:04:23;79.7;111.00002;50;30.113024174;1.9;142;
1507237473;05-Oct-17 21:04:33;79.7;111.00002;50;30.113024174;1.9;142;
1507237483;05-Oct-17 21:04:43;79.7;111.00002;50;30.113024174;2.6;142;
1507237493;05-Oct-17 21:04:53;79.7;111.00002;50;30.113024174;1.9;142;
1507237503;05-Oct-17 21:05:03;79.7;111.00002;50;30.113024174;1.9;157;
1507237513;05-Oct-17 21:05:13;79.7;111.00002;50;30.113024174;1.9;138;
1507237523;05-Oct-17 21:05:23;79.7;111.00002;50;30.113024174;2.6;138;
1507237543;05-Oct-17 21:05:43;79.7;111.00002;50;30.113024174;2.6;155;
1507237553;05-Oct-17 21:05:53;79.7;111.00002;50;30.113024174;1.3;152;
1507237563;05-Oct-17 21:06:03;79.7;111.00002;50;30.112138271;1.3;157;
1507237573;05-Oct-17 21:06:13;79.7;111.00002;50;30.112138271;1.3;157;
1507237583;05-Oct-17 21:06:23;79.7;111.00002;50;30.112138271;1.9;148;
1507237593;05-Oct-17 21:06:33;79.7;111.00002;50;30.112138271;2.6;138;
1507237603;05-Oct-17 21:06:43;79.59992;111.00002;50;30.112138271;2.6;138;
1507237613;05-Oct-17 21:06:53;79.59992;111.00002;50;30.112138271;1.3;138;
1507237623;05-Oct-17 21:07:03;79.59992;111.00002;50;30.111252368;1.3;158;
1507237633;05-Oct-17 21:07:13;79.59992;111.00002;50;30.111252368;1.3;163;
1507237643;05-Oct-17 21:07:23;79.7;111.00002;51;30.111252368;2.6;166;
1507237653;05-Oct-17 21:07:33;79.7;111.00002;51;30.111252368;1.9;173;
1507237663;05-Oct-17 21:07:43;79.7;111.00002;51;30.111252368;1.3;177;
1507237673;05-Oct-17 21:07:53;79.7;109.99994;51;30.111252368;2.6;181;
1507237683;05-Oct-17 21:08:03;79.7;109.99994;51;30.110071164;2.6;169;
1507237703;05-Oct-17 21:08:23;79.7;109.99994;51;30.110071164;1.9;185;
1507237713;05-Oct-17 21:08:33;79.7;109.99994;51;30.110071164;2.6;182;
1507237723;05-Oct-17 21:08:43;79.7;109.99994;51;30.110071164;1.3;200;
1507237733;05-Oct-17 21:08:53;79.7;109.99994;51;30.110071164;2.6;202;
1507237743;05-Oct-17 21:09:03;79.80008;109.99994;50;30.112138271;1.9;187;
1507237753;05-Oct-17 21:09:13;79.80008;109.99994;50;30.112138271;2.6;188;
1507237763;05-Oct-17 21:09:23;79.80008;109.99994;50;30.112138271;3.2;188;
1507237773;05-Oct-17 21:09:33;79.80008;109.99994;50;30.112138271;1.3;188;
1507237783;05-Oct-17 21:09:43;79.80008;109.99994;50;30.112138271;1.9;176;
1507237793;05-Oct-17 21:09:53;79.80008;109.99994;50;30.112138271;0.6;173;
1507237803;05-Oct-17 21:10:03;79.80008;109.99994;50;30.110071164;1.3;173;
1507237813;05-Oct-17 21:10:13;79.89998;109.99994;50;30.110071164;1.3;165;
1507237823;05-Oct-17 21:10:23;79.89998;109.99994;50;30.110071164;2.6;196;
1507237833;05-Oct-17 21:10:33;79.89998;109.99994;50;30.110071164;2.6;202;
1507237843;05-Oct-17 21:10:43;79.89998;109.99994;50;30.110071164;3.9;201;
1507237853;05-Oct-17 21:10:53;79.89998;111.00002;50;30.110071164;2.6;183;
1507237863;05-Oct-17 21:11:03;80.00006;111.00002;50;30.110071164;3.2;198;
1507237873;05-Oct-17 21:11:13;80.00006;111.00002;50;30.110071164;3.9;187;
1507237883;05-Oct-17 21:11:23;80.00006;111.00002;50;30.110071164;1.9;180;
1507237893;05-Oct-17 21:11:33;80.00006;111.00002;50;30.110071164;1.3;180;
1507237903;05-Oct-17 21:11:43;80.00006;111.00002;50;30.110071164;0.6;180;
1507237913;05-Oct-17 21:11:53;80.09996;111.00002;50;30.110071164;1.3;180;
1507237923;05-Oct-17 21:12:03;80.00006;111.00002;50;30.110071164;2.6;159;
1507237933;05-Oct-17 21:12:13;80.09996;111.00002;50;30.110071164;2.6;159;
1507237943;05-Oct-17 21:12:23;80.09996;111.00002;50;30.110071164;1.3;161;
1507237953;05-Oct-17 21:12:33;80.09996;111.00002;50;30.110071164;2.6;162;
1507237963;05-Oct-17 21:12:43;80.09996;111.00002;50;30.110071164;1.3;163;
1507237973;05-Oct-17 21:12:53;80.20004;111.00002;50;30.110071164;2.6;163;
1507237983;05-Oct-17 21:13:03;80.20004;111.00002;50;30.109185261;1.9;157;
1507237993;05-Oct-17 21:13:13;80.20004;111.00002;50;30.109185261;1.9;132;
1507238003;05-Oct-17 21:13:23;80.20004;111.00002;50;30.109185261;3.2;132;
1507238013;05-Oct-17 21:13:33;80.20004;111.00002;50;30.109185261;3.9;109;
1507238023;05-Oct-17 21:13:43;80.20004;111.00002;50;30.109185261;3.2;137;
1507238033;05-Oct-17 21:13:53;80.20004;111.00002;50;30.109185261;2.6;140;
1507238043;05-Oct-17 21:14:03;80.20004;111.00002;50;30.110071164;3.9;145;
1507238053;05-Oct-17 21:14:13;80.20004;111.00002;50;30.110071164;3.2;150;
1507238063;05-Oct-17 21:14:23;80.20004;111.00002;50;30.110071164;2.6;144;
1507238073;05-Oct-17 21:14:33;80.20004;111.00002;50;30.110071164;4.6;141;
1507238083;05-Oct-17 21:14:43;80.20004;111.00002;50;30.110071164;3.2;134;
1507238093;05-Oct-17 21:14:53;80.20004;111.00002;50;30.110071164;3.2;142;
1507238103;05-Oct-17 21:15:03;80.20004;111.00002;50;30.110071164;2.6;138;
1507238114;05-Oct-17 21:15:14;80.20004;111.00002;50;30.110071164;2.6;125;
1507238124;05-Oct-17 21:15:24;80.20004;111.00002;50;30.110071164;2.6;126;
1507238134;05-Oct-17 21:15:34;80.20004;111.00002;50;30.110071164;1.9;126;
1507238144;05-Oct-17 21:15:44;80.20004;111.00002;50;30.110071164;2.6;115;
1507238154;05-Oct-17 21:15:54;80.20004;111.00002;49;30.110071164;2.6;121;
1507238164;05-Oct-17 21:16:04;80.20004;111.00002;49;30.109185261;2.6;118;
1507238174;05-Oct-17 21:16:14;80.20004;111.00002;49;30.109185261;2.6;104;
1507238184;05-Oct-17 21:16:24;80.20004;111.99992;49;30.109185261;1.9;112;
1507238194;05-Oct-17 21:16:34;80.20004;111.99992;49;30.109185261;1.9;119;
1507238204;05-Oct-17 21:16:44;80.20004;111.99992;49;30.109185261;2.6;105;
1507238214;05-Oct-17 21:16:54;80.20004;111.99992;49;30.109185261;3.2;134;
1507238224;05-Oct-17 21:17:04;80.20004;111.99992;49;30.108004057;3.9;154;
1507238234;05-Oct-17 21:17:14;80.20004;111.99992;49;30.108004057;5.9;130;
1507238244;05-Oct-17 21:17:24;80.20004;111.99992;49;30.108004057;5.9;118;
1507238254;05-Oct-17 21:17:34;80.20004;111.99992;49;30.108004057;4.6;117;
1507238264;05-Oct-17 21:17:44;80.09996;111.00002;49;30.108004057;3.9;94;
1507238274;05-Oct-17 21:17:54;80.09996;111.00002;49;30.108004057;1.9;96;
1507238284;05-Oct-17 21:18:04;80.09996;111.00002;49;30.109185261;2.6;108;
1507238294;05-Oct-17 21:18:14;80.09996;111.00002;49;30.109185261;2.6;112;
1507238304;05-Oct-17 21:18:24;80.09996;111.00002;49;30.109185261;1.9;119;
1507238314;05-Oct-17 21:18:34;80.00006;111.00002;49;30.109185261;2.6;123;
1507238324;05-Oct-17 21:18:44;80.09996;111.00002;49;30.109185261;3.2;136;
1507238334;05-Oct-17 21:18:54;80.00006;111.00002;49;30.109185261;3.9;147;
1507238344;05-Oct-17 21:19:04;80.09996;111.00002;49;30.110071164;2.6;137;
1507238354;05-Oct-17 21:19:14;80.00006;111.00002;49;30.110071164;5.2;146;
1507238364;05-Oct-17 21:19:24;80.00006;111.00002;49;30.110071164;3.2;140;
1507238374;05-Oct-17 21:19:34;80.00006;111.00002;49;30.110071164;3.2;144;
1507238384;05-Oct-17 21:19:44;80.00006;111.00002;49;30.110071164;2.6;146;
1507238394;05-Oct-17 21:19:54;80.00006;111.00002;49;30.110071164;3.2;162;
1507238404;05-Oct-17 21:20:04;80.00006;111.00002;49;30.110071164;4.6;157;
